Temperature
16 16 16 16 16 15 15 15 15 14 14 14 14 14 14 14 13 13 13 13 13 13 13 13 13 13 13 13 13 13 13 13 13 14 14 14 14 14 14 14 14 14 14
16 16 16 16 15 15 15 15 14 14 14 14 14 14 13 13 13 13 13 13 13 13 13 13 13 13 13 13 13 13 13 13 13 13 14 14 14 14 14 14 14 14 14
16 16 16 16 15 15 15 15 14 14 14 14 14 13 13 13 13 13 13 13 13 13 13 13 13 13 13 13 13 13 13 13 13 13 13 13 13 13 14 14 14 14 14
16 16 16 16 15 15 15 14 14 14 14 14 13 13 13 13 13 13 13 13 13 12 12 12 13 13 13 13 13 13 13 13 13 13 13 13 13 13 13 13 13 14 14
16 16 16 15 15 15 14 14 14 14 14 13 13 13 13 13 13 13 13 13 12 12 12 12 12 12 12 13 13 13 13 13 13 13 13 13 13 13 13 13 13 13 13
16 16 15 15 15 15 14 14 14 14 13 13 13 13 13 13 13 12 12 12 12 12 12 12 12 12 12 12 12 13 13 13 13 13 13 13 13 13 13 13 13 13 13
16 15 15 15 15 14 14 14 14 13 13 13 13 13 13 12 12 12 12 12 12 12 12 12 12 12 12 12 12 12 12 12 12 12 12 12 12 13 13 12 12 12 13
15 15 15 15 14 14 14 14 13 13 13 13 12 12 12 12 12 12 12 12 12 12 12 12 12 12 12 12 12 12 12 12 12 12 12 12 12 12 12 12 12 12 12
15 15 15 14 14 14 14 13 13 13 13 12 12 12 12 12 12 12 12 12 12 12 12 11 11 11 11 11 11 12 12 12 12 12 12 12 12 12 12 12 12 12 12
15 14 14 14 14 14 13 13 12 12 12 12 12 12 12 12 12 11 11 11 11 11 11 11 11 11 11 11 11 11 11 12 11 12 12 12 12 12 12 12 12 12 12
14 14 14 13 13 13 13 12 12 12 12 12 11 11 11 11 11 11 11 11 11 11 11 11 11 11 11 11 11 11 11 11 11 11 11 11 11 11 11 11 11 11 11
14 14 13 13 13 13 12 12 12 12 11 11 11 11 11 11 11 11 11 11 10 10 11 11 10 10 10 10 10 10 10 10 10 11 11 11 11 11 11 11 11 11 11
14 13 13 13 12 12 12 12 11 11 11 11 11 11 11 11 10 10 10 10 10 10 10 10 10 10 10 10 10 10 10 10 10 10 10 10 10 10 10 10 10 10 11
13 13 12 12 12 12 11 11 11 11 11 10 10 10 10 10 10 10 10 10 10 10 10 10 10 10 10 10 10 10 10 10 10 10 10 10 10 10 10 10 10 10 10
13 12 12 12 11 11 11 11 11 10 10 10 10 9 9 10 10 9 9 9 9 9 9 9 9 9 9 9 9 9 9 9 9 9 9 9 9 9 9 9 9 9 9
12 12 11 11 11 11 10 10 10 10 10 10 9 9 9 9 9 9 9 9 9 9 9 9 9 9 9 9 9 9 9 9 9 9 9 9 9 9 9 9 9 9 9
11 11 11 11 10 10 10 10 10 10 9 9 9 9 9 9 9 9 9 9 9 9 9 9 9 8 8 8 9 9 9 9 9 9 9 8 8 8 8 8 8 8 8
11 11 10 10 10 10 9 9 9 9 9 9 9 9 8 8 8 8 8 8 8 8 8 8 8 8 8 8 8 8 8 8 8 8 8 8 8 8 8 8 8 8 8
11 10 10 10 10 9 9 9 9 8 8 8 8 8 8 8 8 8 8 8 8 8 8 8 8 8 8 8 8 8 8 8 8 8 8 8 8 7 7 7 7 7 7
10 10 9 9 9 9 9 8 8 8 8 8 7 7 7 7 7 7 7 7 7 7 7 7 8 8 7 7 7 7 8 7 7 7 7 7 7 7 7 7 7 7 7
10 9 9 9 9 8 8 8 8 7 7 7 7 7 7 7 7 7 7 7 7 7 7 7 7 7 7 7 7 7 7 7 7 7 7 7 7 7 7 6 6 6 6
9 9 9 8 8 8 8 7 7 7 7 7 7 7 7 7 7 7 7 7 7 7 7 7 7 7 7 7 7 7 7 7 7 7 7 7 7 6 6 6 6 6 6
9 8 8 8 8 7 7 7 7 7 7 7 6 6 6 6 6 6 6 6 6 6 6 6 7 7 7 7 7 7 6 7 6 6 6 6 6 6 6 6 6 6 5
8 8 8 8 7 7 7 7 7 7 6 6 6 6 6 6 6 6 6 6 6 6 6 6 6 6 6 6 6 6 6 6 6 6 6 6 6 6 5 5 5 5 5
8 7 7 7 7 7 6 6 6 6 6 6 6 6 6 6 6 6 6 6 6 6 6 6 6 6 6 6 6 6 6 6 6 6 6 6 5 5 5 5 5 5 5
7 7 7 7 6 6 6 6 6 6 6 5 5 5 5 5 5 5 5 5 5 5 5 5 6 6 6 6 6 6 6 6 6 6 5 5 5 5 5 5 5 4 4
Wind_Speed
2 2 2 1 0 0 0 1 1 1 1 1 2 2 2 2 2 2 2 2 2 3 3 2 3 2 2 1 1 2 2 3 3 3 2 2 2 2 3 2 2 1 1
2 2 2 1 1 1 1 2 1 1 1 2 2 2 2 2 2 1 2 3 2 3 4 3 4 3 2 2 1 2 3 3 3 3 2 2 2 2 2 1 1 1 1
3 3 2 1 1 0 1 2 2 1 2 2 2 2 2 2 2 2 2 3 3 3 3 3 4 3 3 3 2 2 2 2 2 2 2 1 1 1 1 1 1 1 1
3 3 2 1 1 1 1 1 1 1 1 2 2 2 3 2 2 2 2 2 3 4 4 4 4 3 4 4 3 3 2 2 2 2 2 2 1 1 0 0 0 1 1
3 2 1 1 0 0 1 1 2 2 2 2 2 3 3 2 2 2 2 2 3 4 4 4 4 4 4 3 3 3 2 2 2 2 2 1 1 1 1 1 1 0 1
3 2 1 1 1 1 0 1 2 3 3 3 2 3 3 3 4 3 1 1 2 3 4 5 5 4 6 6 5 4 2 2 3 2 2 2 3 2 2 2 2 1 1
3 2 1 1 1 0 0 1 2 2 2 3 3 2 3 4 5 4 3 1 2 2 3 4 4 5 6 4 5 5 4 4 3 3 3 4 3 3 2 2 2 2 3
2 1 1 1 1 1 1 1 1 1 1 1 2 3 3 4 6 5 4 2 2 3 3 3 3 4 5 5 4 4 4 4 4 3 4 5 4 4 4 3 3 2 1
2 1 1 2 1 1 0 0 0 1 1 2 2 3 3 5 6 6 4 2 2 3 3 3 3 3 6 6 3 3 4 4 5 4 3 3 4 3 2 2 2 2 2
3 2 1 1 2 1 1 1 0 0 1 2 3 3 3 4 6 6 5 1 2 3 3 4 4 4 5 5 2 2 3 4 4 4 3 4 3 3 2 1 3 3 2
2 2 2 1 1 1 0 0 0 0 1 2 3 4 4 5 6 6 5 1 2 3 3 3 4 6 6 5 3 2 4 4 3 2 2 2 2 2 2 2 1 2 3
3 2 1 0 0 1 1 1 1 0 1 2 3 4 4 5 6 6 6 4 3 2 3 4 4 6 6 5 4 4 4 3 2 2 2 2 2 2 2 2 2 1 1
3 2 1 1 0 0 1 0 0 0 0 2 2 4 5 5 5 8 7 7 5 3 4 5 5 5 5 4 4 5 3 1 1 1 2 3 2 2 2 2 2 1 2
3 2 1 1 0 1 0 1 1 1 1 2 3 4 5 5 5 4 4 4 5 4 4 5 5 5 3 3 4 3 2 2 1 2 3 3 2 2 2 2 1 2 1
3 2 1 1 1 1 1 2 2 3 3 3 4 4 4 5 7 7 5 4 3 4 2 2 2 2 2 3 3 3 2 2 2 2 2 2 2 2 2 2 1 1 1
3 2 1 1 1 1 1 3 3 4 6 7 6 5 5 7 9 9 9 8 7 5 2 2 3 3 4 4 4 4 3 3 3 3 2 2 3 3 3 2 1 1 2
3 2 2 1 1 1 1 2 4 5 6 6 7 8 8 8 9 9 8 7 6 4 2 3 4 4 4 4 4 4 4 4 3 3 3 3 3 3 3 2 2 2 2
3 3 2 2 2 2 2 3 3 3 5 5 6 9 9 9 9 8 7 4 3 2 3 4 5 5 5 5 4 4 4 3 3 3 4 4 3 3 3 3 3 3 3
3 2 2 2 2 2 2 2 3 4 4 5 5 6 8 8 8 7 5 2 4 4 5 5 6 6 5 5 5 4 4 4 4 4 4 4 4 4 4 4 4 4 4
3 4 3 2 2 2 2 3 3 4 4 5 5 6 5 4 4 5 4 4 5 5 6 6 6 6 5 5 5 4 4 4 4 4 4 4 4 5 5 5 5 4 4
3 3 4 3 3 3 3 4 4 4 5 5 6 7 8 5 6 6 6 6 6 7 7 6 6 6 6 5 5 5 6 5 5 5 5 4 4 5 4 5 5 5 4
3 3 3 3 4 4 4 4 4 5 6 7 7 7 9 6 6 7 7 7 7 7 6 6 6 6 6 6 6 6 6 6 6 6 5 5 5 4 4 4 5 5 5
4 4 4 4 4 5 5 4 5 5 6 6 7 6 6 6 7 7 8 8 7 7 6 6 7 7 7 8 8 8 8 8 7 7 6 6 5 5 5 5 6 6 6
4 4 4 4 4 4 5 6 6 6 6 7 7 7 7 7 8 9 9 8 7 7 7 7 8 9 11 9 9 10 11 11 10 8 9 7 7 6 5 5 6 7 6
4 4 4 5 5 5 6 6 6 7 7 7 8 8 8 8 8 9 8 8 8 8 9 9 9 10 11 13 12 12 14 15 14 11 9 8 8 7 7 7 6 6 6
5 5 5 5 5 6 6 7 7 8 8 8 8 8 8 8 9 9 8 8 8 9 9 9 10 12 13 13 15 16 16 16 15 14 11 8 8 8 7 7 7 7 7
Wind_Direction
150 147 118 113 114 64 352 289 286 308 322 328 326 334 341 347 349 357 340 341 343 336 337 324 311 297 289 284 235 207 204 187 230 278 272 293 313 324 336 344 350 348 308
156 135 126 107 81 55 336 307 300 309 314 316 324 333 331 334 336 343 336 340 334 329 326 327 313 309 298 280 252 229 222 211 210 262 288 304 300 306 319 330 342 347 327
137 132 117 103 92 50 325 327 324 314 320 325 340 330 322 320 320 317 320 324 321 314 314 314 309 308 301 292 269 255 240 231 210 229 269 279 291 314 349 350 14 18 8
137 136 145 183 186 224 304 341 343 333 324 319 321 313 307 308 312 315 324 321 320 319 319 312 305 297 284 290 279 265 252 239 219 228 257 273 273 295 288 206 346 24 1
124 129 176 198 132 70 11 356 7 15 6 346 344 336 332 327 318 309 303 323 324 327 328 323 314 320 318 308 292 274 254 248 233 225 254 268 268 264 252 231 204 332 328
130 139 133 107 93 68 1 13 26 17 9 15 1 342 343 336 343 350 342 321 328 332 328 328 326 333 336 337 332 316 261 249 241 229 247 250 258 245 230 207 190 157 291
139 141 123 109 93 52 43 48 26 4 11 12 359 354 339 327 344 348 348 339 326 323 319 328 337 343 344 335 339 346 337 322 263 225 238 252 252 241 218 221 213 211 225
133 139 142 127 106 60 63 43 344 359 7 343 335 334 334 336 348 350 348 343 324 321 316 314 319 329 337 343 348 351 341 330 309 273 246 256 260 254 231 223 216 211 239
137 162 177 159 146 120 83 332 312 4 349 328 324 332 332 326 343 346 350 333 324 321 323 332 328 318 331 347 356 342 336 329 332 323 307 299 295 292 250 187 193 193 240
179 182 168 154 153 176 225 248 288 289 293 315 324 320 315 312 330 341 345 329 318 318 323 324 324 326 334 344 342 328 321 311 321 332 341 345 345 348 352 240 221 216 226
173 148 132 140 158 177 173 323 288 357 351 336 322 317 314 309 319 327 332 320 283 298 311 311 309 321 327 329 327 283 280 297 311 319 326 334 343 349 353 358 297 228 226
131 124 123 131 142 87 112 12 23 67 5 329 324 321 316 312 312 312 316 303 296 268 274 282 292 310 316 322 320 315 314 324 328 338 333 327 328 324 321 340 359 348 263
122 120 110 59 43 107 155 193 323 341 300 300 306 307 309 310 309 313 312 305 293 276 268 279 294 301 302 309 315 321 327 324 315 308 297 294 288 288 303 319 348 21 25
137 146 135 112 18 342 241 210 216 248 269 282 286 290 298 305 302 301 302 301 293 285 287 296 301 301 289 287 304 312 303 272 253 252 269 280 292 301 307 301 301 307 323
142 153 161 170 191 291 293 259 248 248 236 249 257 262 277 292 290 285 287 286 270 262 274 306 311 311 302 300 294 288 285 285 278 269 263 274 288 291 293 294 291 301 276
148 170 187 195 224 244 288 315 292 273 285 278 270 267 268 273 292 299 298 292 283 270 260 268 274 271 268 270 273 277 269 262 260 256 254 256 264 270 281 289 282 263 260
168 186 197 205 224 247 261 277 304 317 313 306 300 296 288 293 298 302 301 298 293 274 249 256 261 263 264 264 258 253 256 259 253 252 252 250 250 256 262 262 256 255 261
171 192 198 211 227 240 251 262 269 287 307 311 307 302 301 299 299 300 301 311 304 282 248 253 259 260 261 256 251 253 259 258 251 249 251 250 247 247 253 249 244 243 247
182 196 204 210 225 241 254 263 270 274 279 289 302 306 304 303 302 299 300 275 267 267 259 256 256 257 254 250 250 250 251 251 251 247 246 245 243 241 245 245 246 240 244
206 229 225 211 226 248 256 261 267 270 275 280 283 286 299 305 299 295 286 270 262 262 260 258 254 250 248 248 247 245 249 252 248 247 249 247 241 237 239 241 240 241 247
207 231 249 246 236 243 251 256 259 263 267 271 273 274 275 277 273 273 273 268 262 261 260 257 253 248 243 242 239 237 240 246 243 241 245 245 243 243 240 237 239 241 244
204 217 224 233 243 248 254 254 257 262 266 270 277 281 279 271 266 268 268 267 263 260 254 251 253 248 238 234 234 236 239 242 242 240 241 239 235 238 243 241 237 238 239
206 222 235 242 244 256 263 258 258 261 266 268 271 274 274 268 266 266 268 269 269 264 256 250 253 254 245 238 232 228 233 237 234 229 234 234 230 229 232 239 241 240 239
212 223 235 247 251 250 253 260 262 263 265 267 268 267 267 266 267 268 269 271 271 267 260 254 252 253 251 249 245 241 238 238 235 228 227 228 230 230 230 234 238 239 235
213 226 235 243 249 253 257 261 264 266 268 268 269 268 267 267 267 268 267 266 268 269 264 259 257 256 254 251 248 247 247 245 242 237 229 222 224 226 228 231 234 238 242
222 231 239 244 247 252 255 261 265 266 267 269 268 267 267 267 268 268 267 266 268 269 266 262 257 256 259 257 252 249 249 247 243 240 229 219 221 226 225 228 229 232 236
Height
1548 1549 1549 1549 1549 1549 1549 1548 1547 1546 1545 1544 1543 1542 1540 1539 1538 1537 1535 1534 1533 1532 1531 1530 1529 1528 1527 1526 1526 1525 1525 1525 1525 1524 1524 1524 1524 1524 1524 1525 1525 1526 1527
1548 1548 1549 1549 1549 1548 1548 1547 1546 1545 1544 1543 1542 1541 1539 1538 1537 1536 1534 1533 1532 1531 1529 1528 1527 1526 1525 1525 1524 1524 1524 1524 1523 1522 1522 1523 1523 1523 1523 1523 1523 1524 1525
1547 1548 1548 1548 1548 1547 1547 1546 1545 1544 1543 1542 1541 1539 1538 1537 1536 1535 1533 1532 1531 1529 1528 1527 1526 1524 1524 1523 1522 1522 1522 1522 1521 1521 1520 1521 1521 1521 1521 1521 1521 1522 1523
1546 1546 1547 1547 1546 1546 1546 1545 1544 1543 1542 1541 1539 1538 1537 1536 1535 1534 1532 1531 1530 1528 1527 1525 1524 1523 1522 1521 1521 1520 1520 1520 1519 1519 1518 1518 1518 1519 1519 1519 1519 1520 1520
1545 1545 1545 1545 1545 1545 1545 1544 1543 1542 1540 1539 1538 1537 1535 1534 1533 1532 1531 1529 1528 1526 1525 1523 1522 1521 1520 1519 1519 1518 1518 1517 1517 1517 1516 1516 1516 1516 1516 1516 1516 1517 1518
1543 1544 1544 1544 1544 1543 1543 1542 1541 1540 1539 1538 1536 1535 1534 1532 1531 1530 1529 1528 1526 1525 1523 1522 1521 1519 1518 1517 1516 1516 1516 1515 1515 1514 1514 1513 1513 1514 1514 1514 1514 1514 1515
1542 1542 1542 1542 1542 1542 1541 1540 1539 1538 1537 1536 1535 1533 1532 1531 1530 1528 1527 1526 1524 1523 1521 1520 1519 1517 1516 1515 1514 1514 1513 1513 1513 1512 1511 1511 1511 1511 1511 1511 1511 1512 1512
1541 1541 1541 1541 1540 1540 1539 1539 1538 1536 1535 1534 1533 1532 1530 1529 1528 1526 1525 1524 1522 1521 1520 1518 1517 1515 1514 1513 1512 1511 1510 1510 1510 1510 1509 1509 1508 1508 1508 1508 1508 1509 1509
1539 1539 1539 1539 1539 1538 1537 1537 1536 1535 1534 1532 1531 1530 1528 1527 1526 1524 1523 1521 1520 1519 1517 1516 1515 1513 1512 1511 1510 1508 1507 1507 1507 1507 1507 1506 1506 1505 1505 1505 1505 1505 1505
1537 1537 1538 1537 1537 1536 1536 1535 1534 1533 1532 1531 1529 1528 1526 1525 1523 1522 1521 1519 1517 1516 1515 1514 1512 1511 1510 1509 1507 1506 1505 1504 1504 1503 1503 1503 1503 1502 1502 1502 1502 1502 1502
1535 1536 1536 1536 1535 1535 1534 1533 1532 1531 1530 1529 1528 1526 1525 1523 1521 1520 1518 1517 1515 1514 1512 1511 1510 1509 1507 1506 1505 1504 1502 1502 1501 1500 1499 1499 1499 1499 1499 1499 1499 1499 1498
1533 1534 1533 1533 1533 1532 1532 1531 1530 1529 1528 1526 1525 1524 1522 1521 1519 1517 1516 1514 1513 1511 1509 1508 1507 1506 1505 1504 1503 1501 1500 1499 1498 1497 1496 1496 1495 1495 1495 1495 1495 1495 1495
1531 1531 1531 1531 1530 1530 1529 1528 1527 1526 1525 1524 1522 1521 1519 1518 1516 1515 1513 1511 1510 1508 1506 1505 1504 1503 1502 1501 1500 1499 1497 1496 1495 1494 1493 1493 1492 1492 1491 1491 1491 1491 1491
1528 1528 1528 1528 1527 1527 1526 1526 1525 1523 1522 1521 1519 1518 1516 1514 1513 1511 1509 1507 1506 1504 1503 1502 1501 1500 1499 1497 1496 1495 1494 1493 1492 1491 1490 1490 1489 1489 1488 1488 1488 1487 1487
1525 1525 1525 1525 1524 1524 1523 1523 1522 1521 1520 1518 1516 1515 1512 1510 1509 1508 1506 1504 1502 1500 1499 1498 1496 1495 1494 1493 1492 1491 1490 1490 1489 1488 1487 1486 1486 1485 1485 1484 1484 1484 1483
1522 1522 1522 1522 1521 1520 1520 1519 1518 1518 1516 1515 1513 1511 1509 1507 1505 1503 1501 1500 1498 1497 1495 1493 1492 1491 1490 1489 1488 1487 1486 1486 1485 1484 1484 1483 1482 1482 1481 1481 1481 1480 1480
1519 1519 1519 1518 1518 1517 1516 1515 1513 1513 1512 1510 1509 1506 1504 1502 1500 1498 1497 1495 1494 1492 1490 1489 1488 1486 1485 1484 1484 1483 1482 1482 1481 1480 1480 1479 1478 1478 1477 1477 1477 1476 1476
1516 1516 1516 1515 1514 1513 1512 1511 1510 1508 1506 1504 1503 1502 1500 1498 1496 1494 1492 1490 1488 1487 1486 1484 1483 1482 1481 1480 1479 1478 1478 1477 1477 1476 1475 1475 1474 1473 1473 1473 1472 1472 1472
1513 1513 1512 1512 1511 1510 1509 1507 1506 1504 1502 1500 1498 1496 1495 1492 1490 1489 1487 1485 1483 1482 1481 1480 1478 1477 1476 1475 1474 1474 1473 1472 1472 1471 1470 1470 1469 1469 1468 1468 1468 1468 1468
1509 1509 1508 1508 1507 1506 1504 1503 1501 1499 1497 1495 1493 1491 1489 1487 1485 1483 1482 1480 1479 1477 1476 1474 1473 1472 1471 1470 1469 1468 1468 1467 1466 1466 1465 1465 1464 1464 1463 1463 1463 1463 1463
1505 1505 1504 1503 1502 1501 1500 1498 1496 1494 1492 1490 1488 1487 1485 1483 1480 1478 1477 1475 1473 1472 1470 1469 1467 1466 1465 1464 1463 1463 1462 1461 1461 1460 1460 1459 1459 1458 1458 1458 1458 1458 1458
1500 1500 1499 1498 1497 1496 1495 1493 1491 1489 1487 1485 1483 1481 1479 1477 1475 1473 1471 1469 1467 1466 1464 1463 1461 1460 1459 1458 1457 1457 1456 1455 1455 1454 1454 1453 1453 1452 1452 1452 1452 1452 1452
1495 1495 1494 1493 1492 1491 1489 1488 1486 1484 1482 1480 1477 1475 1473 1471 1469 1467 1465 1463 1461 1459 1458 1456 1455 1454 1453 1452 1451 1450 1449 1449 1449 1448 1448 1447 1447 1446 1446 1446 1446 1446 1446
1490 1489 1488 1487 1486 1485 1483 1482 1480 1478 1476 1473 1471 1469 1466 1464 1462 1460 1458 1456 1454 1452 1451 1449 1448 1447 1446 1445 1444 1443 1443 1442 1442 1442 1441 1441 1440 1440 1440 1440 1440 1440 1440
1485 1484 1483 1481 1480 1478 1477 1475 1473 1471 1469 1467 1464 1462 1459 1457 1455 1452 1450 1449 1447 1445 1443 1442 1440 1439 1438 1437 1436 1436 1435 1435 1435 1434 1434 1434 1433 1433 1433 1433 1433 1433 1433
1479 1478 1477 1475 1474 1472 1470 1468 1466 1464 1462 1459 1457 1454 1451 1449 1447 1445 1443 1441 1439 1437 1435 1434 1432 1431 1430 1429 1428 1427 1427 1427 1427 1427 1427 1426 1426 1426 1426 1426 1426 1427 1427